Change the Weather History Date:

Friday, January 18, 2013

  Actual Average Record
Temperature  
Mean Temperature -9 °F -  
Max Temperature 5 °F 18 °F 48 °F (2006)
Min Temperature -23 °F 1 °F -29 °F (2009)
Degree Days  
Heating Degree Days 74    
Moisture  
Dew Point -20 °F    
Average Humidity 51    
Maximum Humidity 100    
Minimum Humidity 23    
Precipitation  
Precipitation 0.00 in - - ()
Sea Level Pressure  
Sea Level Pressure 30.10 in    
Wind  
Wind Speed 4 mph (WSW)    
Max Wind Speed 14 mph    
Max Gust Speed 22 mph    
Visibility 10 miles    
Events      
Averages and records for this station are not official NWS values.
T = Trace of Precipitation, MM = Missing Value Source: NWS Daily Summary

Daily Weather History Graph

Daily Weather History Graph

Search for Another Location

Airport or City:

Trip Planner

Search our weather history database for the weather conditions in past years. The results will help you decide how hot, cold, wet, or windy it might be!

Date:

Astronomy

Jan. 18, 2013 Rise Set
Actual Time 7:10 AM EST 4:15 PM EST
Civil Twilight 6:36 AM EST 4:49 PM EST
Nautical Twilight 5:59 AM EST 5:26 PM EST
Astronomical Twilight 5:23 AM EST 6:02 PM EST
Moon 10:16 AM EST (1/18) No Moon Set
Length of Visible Light 10h 12m
Length of Day
9h 05m
Waxing Crescent, 47% of the Moon is Illuminated
Jan 18
Waxing Crescent
Jan 18
First Quarter
Jan 26
Full
Feb 3
Last Quarter
Feb 10
New

Hourly Weather History & Observations

Time (EST) Temp. Windchill Dew Point Humidity Pressure Visibility Wind Dir Wind Speed Gust Speed Precip Events Conditions
12:15 AM -7.6 °F -24.6 °F -16.6 °F 65% 30.05 in 10.0 mi NNW 9.2 mph - N/A   Clear
12:35 AM -7.6 °F -16.5 °F -16.6 °F 65% 30.05 in 10.0 mi NNW 3.5 mph - N/A   Clear
12:55 AM -7.6 °F - -16.6 °F 65% 30.06 in 10.0 mi Calm Calm - N/A   Clear
1:15 AM -9.4 °F -18.6 °F -16.6 °F 71% 30.07 in 10.0 mi WNW 3.5 mph - N/A   Clear
1:35 AM -9.4 °F - -16.6 °F 71% 30.07 in 10.0 mi Calm Calm - N/A   Clear
1:55 AM -9.4 °F -20.9 °F -16.6 °F 71% 30.09 in 10.0 mi West 4.6 mph - N/A   Clear
2:15 AM -9.4 °F - -16.6 °F 71% 30.09 in 10.0 mi Calm Calm - N/A   Clear
2:55 AM -11.2 °F - -18.4 °F 70% 30.08 in 10.0 mi Calm Calm - N/A   Clear
3:15 AM -11.2 °F - -14.8 °F 84% 30.06 in 10.0 mi Calm Calm - N/A   Clear
3:35 AM -14.8 °F - -22.0 °F 70% 30.08 in 10.0 mi Calm Calm - N/A   Clear
3:55 AM -14.8 °F - -16.6 °F 92% 30.07 in 10.0 mi Calm Calm - N/A   Clear
4:15 AM -16.6 °F - -20.2 °F 84% 30.06 in 10.0 mi Calm Calm - N/A   Clear
4:35 AM -18.4 °F - -23.8 °F 76% 30.09 in 10.0 mi Calm Calm - N/A   Clear
4:55 AM -18.4 °F - -20.2 °F 91% 30.08 in 10.0 mi Calm Calm - N/A   Clear
5:15 AM -18.4 °F - -22.0 °F 84% 30.06 in 10.0 mi Calm Calm - N/A   Clear
5:35 AM - - - N/A% 30.08 in - North - - N/A   Unknown
5:55 AM -20.2 °F - -29.2 °F 63% 30.08 in 10.0 mi Calm Calm - N/A   Clear
6:15 AM -20.2 °F - -25.6 °F 76% 30.08 in 10.0 mi Calm Calm - N/A   Clear
6:35 AM -20.2 °F - -20.2 °F 100% 30.10 in 10.0 mi Calm Calm - N/A   Clear
6:55 AM -22.0 °F - - N/A% 30.10 in 8.0 mi Calm Calm - N/A   Clear
7:15 AM -20.2 °F - -20.2 °F 100% 30.11 in 10.0 mi Calm Calm - N/A   Clear
7:35 AM -23.8 °F - - N/A% 30.09 in 10.0 mi Calm Calm - N/A   Clear
7:55 AM -22.0 °F - - N/A% 30.11 in 9.0 mi Calm Calm - N/A   Clear
8:15 AM -20.2 °F - -25.6 °F 76% 30.13 in 9.0 mi Calm Calm - N/A   Clear
8:35 AM -18.4 °F - - N/A% 30.12 in 10.0 mi Calm Calm - N/A   Clear
8:55 AM -18.4 °F - - N/A% 30.12 in 10.0 mi Calm Calm - N/A   Clear
9:15 AM -14.8 °F - - N/A% 30.13 in 10.0 mi Calm Calm - N/A   Clear
9:35 AM -11.2 °F - -29.2 °F 41% 30.13 in 10.0 mi Calm Calm - N/A   Clear
9:55 AM -9.4 °F - -27.4 °F 41% 30.13 in 10.0 mi Calm Calm - N/A   Clear
10:15 AM -9.4 °F - -27.4 °F 41% 30.12 in 10.0 mi Calm Calm - N/A   Clear
10:35 AM -7.6 °F - -23.8 °F 45% 30.11 in 10.0 mi Calm Calm - N/A   Clear
10:55 AM -4.0 °F - -23.8 °F 38% 30.10 in 10.0 mi Calm Calm - N/A   Clear
11:15 AM -2.2 °F -15.6 °F -22.0 °F 39% 30.09 in 10.0 mi West 6.9 mph - N/A   Clear
11:35 AM -0.4 °F -16.7 °F -25.6 °F 30% 30.08 in 10.0 mi WSW 10.4 mph - N/A   Clear
11:55 AM -0.4 °F -17.6 °F -20.2 °F 39% 30.08 in 10.0 mi WSW 11.5 mph - N/A   Clear
12:15 PM -0.4 °F -17.6 °F -22.0 °F 36% 30.08 in 10.0 mi West 11.5 mph - N/A   Clear
12:35 PM 1.4 °F -16.1 °F -20.2 °F 36% 30.08 in 10.0 mi West 12.7 mph - N/A   Clear
1:15 PM 3.2 °F -12.2 °F -22.0 °F 30% 30.07 in 10.0 mi West 10.4 mph - N/A   Clear
1:35 PM 3.2 °F -14.6 °F -20.2 °F 33% 30.08 in 10.0 mi West 13.8 mph - N/A   Clear
1:55 PM 3.2 °F -13.9 °F -20.2 °F 33% 30.08 in 10.0 mi West 12.7 mph - N/A   Clear
2:15 PM 5.0 °F -10.0 °F -22.0 °F 28% 30.08 in 10.0 mi WSW 10.4 mph - N/A   Clear
2:35 PM 5.0 °F -10.8 °F -18.4 °F 33% 30.09 in 10.0 mi West 11.5 mph - N/A   Clear
2:55 PM 5.0 °F -10.8 °F -22.0 °F 28% 30.08 in 10.0 mi West 11.5 mph - N/A   Clear
3:15 PM 5.0 °F -10.8 °F -18.4 °F 33% 30.08 in 10.0 mi West 11.5 mph 18.4 mph N/A   Clear
3:35 PM 3.2 °F -13.9 °F -20.2 °F 33% 30.08 in 10.0 mi West 12.7 mph - N/A   Clear
3:55 PM 3.2 °F -12.2 °F -18.4 °F 36% 30.08 in 10.0 mi West 10.4 mph 21.9 mph N/A   Clear
4:15 PM 3.2 °F -6.2 °F -18.4 °F 36% 30.08 in 10.0 mi WSW 4.6 mph - N/A   Clear
4:35 PM 3.2 °F -7.8 °F -20.2 °F 33% 30.09 in 10.0 mi SW 5.8 mph - N/A   Clear
4:55 PM 1.4 °F - -16.6 °F 43% 30.09 in 10.0 mi Calm Calm - N/A   Clear
5:15 PM 1.4 °F -9.9 °F -23.8 °F 30% 30.09 in 10.0 mi SW 5.8 mph - N/A   Clear
5:35 PM 1.4 °F -11.3 °F 1.4 °F 100% 30.09 in 10.0 mi SW 6.9 mph - N/A   Clear
5:55 PM 1.4 °F -8.3 °F -29.2 °F 23% 30.09 in 10.0 mi SW 4.6 mph - N/A   Clear
6:15 PM 1.4 °F -11.3 °F -25.6 °F 27% 30.09 in 10.0 mi SW 6.9 mph - N/A   Clear
6:35 PM 1.4 °F -11.3 °F -29.2 °F 23% 30.09 in 10.0 mi SW 6.9 mph - N/A   Clear
6:55 PM 1.4 °F -11.3 °F -23.8 °F 30% 30.10 in 10.0 mi SW 6.9 mph - N/A   Clear
7:15 PM 1.4 °F -13.5 °F -20.2 °F 36% 30.11 in 10.0 mi WSW 9.2 mph - N/A   Clear
7:35 PM 1.4 °F -12.5 °F -18.4 °F 39% 30.11 in 10.0 mi WSW 8.1 mph - N/A   Clear
7:55 PM 1.4 °F -12.5 °F -16.6 °F 43% 30.12 in 10.0 mi WSW 8.1 mph - N/A   Clear
8:15 PM -0.4 °F -14.7 °F -18.4 °F 43% 30.13 in 10.0 mi WSW 8.1 mph - N/A   Clear
8:35 PM -0.4 °F -14.7 °F -16.6 °F 46% 30.13 in 10.0 mi WSW 8.1 mph - N/A   Clear
8:55 PM -0.4 °F -14.7 °F -16.6 °F 46% 30.14 in 10.0 mi WSW 8.1 mph - N/A   Clear
9:15 PM -0.4 °F -12.0 °F -16.6 °F 46% 30.14 in 10.0 mi WSW 5.8 mph - N/A   Clear
9:35 PM -0.4 °F -12.0 °F -16.6 °F 46% 30.14 in 10.0 mi WSW 5.8 mph - N/A   Clear
9:55 PM -0.4 °F -14.7 °F -18.4 °F 43% 30.14 in 10.0 mi SW 8.1 mph - N/A   Clear
10:15 PM -0.4 °F -15.7 °F -18.4 °F 43% 30.14 in 10.0 mi WSW 9.2 mph - N/A   Clear
10:35 PM 1.4 °F -12.5 °F -14.8 °F 47% 30.14 in 10.0 mi SW 8.1 mph - N/A   Clear
10:55 PM -0.4 °F -14.7 °F -18.4 °F 43% 30.13 in 10.0 mi SW 8.1 mph - N/A   Clear
11:15 PM -0.4 °F -15.7 °F -16.6 °F 46% 30.13 in 10.0 mi SSW 9.2 mph - N/A   Clear
11:35 PM -0.4 °F -13.4 °F -16.6 °F 46% 30.13 in 10.0 mi SSW 6.9 mph - N/A   Clear
11:55 PM -0.4 °F -18.4 °F -14.8 °F 51% 30.13 in 10.0 mi SSW 12.7 mph - N/A   Clear